Wind_Speed
16 17 17 16 16 16 16 16 15 15 16 17 18 20 22 25 27 29 31 32 32 32 31 31 31 31 31 32 32 33 33 34 35 38 42 47 50 52 52 51 50 47 45 44 43 43 42 42 42 43 43 43 44 45 44 44 44 44 44 45 46 46 45 45 47 48 49 49 49 48 48 49 49 48 46 45 44 44 43 42 41 40 39 38 37 35
15 17 17 16 16 15 16 16 15 15 15 16 16 17 18 20 23 25 27 29 30 31 31 31 31 31 31 31 31 30 30 29 29 31 34 38 43 48 50 51 51 50 49 48 46 45 43 43 43 43 43 44 44 45 45 45 45 45 46 46 46 46 44 45 47 49 50 50 49 48 48 49 49 49 48 46 46 45 45 44 42 41 40 38 37 35
13 14 15 15 15 14 15 15 15 15 16 16 17 17 17 18 20 22 23 24 26 27 28 30 31 32 32 33 33 32 31 30 28 28 29 32 36 40 43 46 48 50 50 50 49 47 45 45 44 44 44 44 45 45 46 46 46 47 47 47 47 45 44 46 48 49 51 51 51 49 48 49 49 49 48 47 46 46 46 45 43 42 40 39 37 35
11 12 12 13 14 14 14 15 15 16 17 17 18 18 17 17 18 20 21 22 22 23 24 26 28 29 31 33 34 34 34 33 31 30 29 30 32 34 37 40 43 46 50 51 50 48 47 47 46 46 45 45 46 46 46 46 47 47 47 47 46 45 45 47 47 47 49 51 51 50 49 49 50 49 49 48 47 47 46 45 43 42 40 38 37 35
11 11 11 12 13 14 15 16 16 17 17 18 18 18 18 18 19 19 20 20 20 21 21 22 23 25 27 29 31 33 35 35 35 34 32 32 32 32 33 34 37 41 45 48 49 48 48 47 47 47 47 47 47 47 47 47 47 47 47 46 45 44 46 48 48 47 48 49 50 50 49 50 50 50 49 48 47 47 46 45 43 42 40 38 37 35
11 11 12 12 12 13 16 17 18 18 18 18 18 18 19 19 19 19 19 20 20 20 20 20 21 22 23 25 27 29 32 34 35 35 34 34 33 33 33 33 34 36 39 42 45 47 47 48 48 48 48 48 48 49 49 49 49 48 48 47 46 46 47 48 49 48 48 49 50 50 49 49 50 50 49 48 47 46 45 44 43 41 40 38 37 35
12 12 12 12 12 13 14 16 17 17 16 16 17 18 18 19 19 19 20 20 20 20 20 20 20 21 22 23 24 25 27 29 30 31 32 33 33 34 34 35 35 35 36 37 40 43 45 47 48 48 49 49 50 51 51 52 53 52 52 51 51 51 51 51 50 50 49 50 50 50 49 49 49 49 48 47 46 45 44 43 42 41 40 38 36 35
14 14 13 12 12 12 12 13 14 14 14 14 14 15 16 17 18 19 20 20 20 20 19 20 20 21 22 22 23 24 24 25 26 27 29 30 31 32 33 34 35 35 34 34 35 37 40 43 45 47 48 49 51 52 53 55 56 56 56 56 56 56 56 54 53 51 50 51 52 52 50 49 48 48 47 45 44 44 43 42 41 40 39 38 36 35
14 14 13 12 11 11 11 11 11 12 13 13 12 12 12 13 15 16 18 19 20 20 19 19 20 20 21 22 23 23 24 24 25 25 26 28 29 31 32 32 33 32 31 29 29 30 32 35 39 42 45 47 49 51 53 55 56 57 58 58 58 58 57 56 54 53 52 52 53 54 52 51 49 48 46 45 44 43 42 41 40 39 38 37 36 35
14 14 14 13 12 11 11 11 11 12 13 13 13 12 12 12 12 13 15 16 17 19 19 19 19 20 20 21 22 23 23 24 24 25 25 26 28 29 31 31 31 30 28 26 24 23 25 28 31 36 40 43 46 48 50 52 53 54 55 56 56 56 55 56 55 54 53 54 55 56 54 52 50 49 46 45 43 43 42 41 40 38 38 37 36 34
13 13 13 13 13 12 11 11 12 13 15 14 13 13 13 13 12 12 12 13 14 15 16 18 19 19 20 20 21 22 23 23 24 25 25 26 27 29 30 32 32 31 29 27 24 22 21 22 25 29 33 38 42 45 48 49 49 50 50 51 51 52 53 55 55 54 54 55 57 58 56 53 51 48 46 44 44 43 42 41 40 39 38 37 36 34
13 13 13 13 13 13 12 12 12 13 12 10 9 9 10 11 12 12 12 12 12 12 13 15 17 18 19 19 20 20 21 22 23 24 24 25 25 26 28 30 31 32 32 30 28 26 24 22 22 23 26 31 37 42 45 47 47 46 46 45 45 46 49 51 53 54 55 56 58 59 57 53 49 47 45 44 43 43 42 41 40 39 38 37 36 34
13 13 13 13 13 13 12 12 11 10 9 7 6 6 7 8 9 10 12 12 13 13 12 13 14 16 18 19 19 19 20 21 22 23 23 24 24 25 25 26 28 29 30 30 31 30 29 26 24 23 23 25 30 36 41 43 43 42 40 39 38 40 42 46 50 53 55 58 59 59 55 51 47 45 44 44 43 42 42 41 40 39 38 37 36 34
12 12 12 12 12 12 12 11 11 10 9 8 7 7 7 8 8 9 10 12 13 14 13 14 14 15 17 19 20 20 20 20 21 22 22 23 23 23 23 24 25 26 27 27 29 30 30 30 28 26 24 23 25 29 34 37 38 36 35 33 33 35 38 42 47 51 54 57 57 55 51 48 46 45 44 44 43 42 41 40 39 38 37 36 35 34
12 12 11 11 11 12 12 11 11 11 11 10 9 9 9 9 9 9 9 10 11 12 12 13 14 15 16 18 20 20 20 20 20 20 21 23 23 23 23 23 24 24 25 25 26 27 28 29 29 29 27 25 24 26 29 32 33 31 30 30 31 34 38 42 47 50 52 53 52 50 47 46 45 45 45 44 42 41 40 39 38 38 37 35 34 33
12 12 11 11 12 12 12 12 12 12 12 12 11 11 10 10 9 9 9 10 10 10 9 10 10 11 13 15 17 18 18 19 19 19 19 20 22 22 22 21 22 23 24 25 25 25 25 26 27 28 28 27 26 26 27 29 30 30 28 28 31 35 41 45 48 49 49 49 48 47 45 45 46 46 45 44 43 41 41 40 39 38 37 35 34 33
12 12 12 12 13 13 14 13 13 13 13 13 13 12 11 11 10 10 9 9 9 9 8 7 5 4 7 9 12 14 14 15 17 18 17 18 19 20 20 20 21 22 23 24 25 25 24 24 25 26 27 28 27 27 27 28 29 30 30 31 34 38 43 46 47 47 47 46 46 46 46 47 46 46 45 44 43 42 42 41 40 39 37 36 34 33
13 13 12 13 13 14 14 14 14 14 13 13 14 13 13 12 12 11 11 10 9 8 8 8 6 4 4 6 8 8 10 11 13 14 15 15 16 17 18 18 19 21 22 23 24 24 24 23 24 25 26 27 27 27 28 28 29 30 32 34 38 42 45 47 46 46 45 46 46 47 48 48 47 46 45 44 43 42 42 41 40 38 37 36 34 33
14 14 13 13 14 14 15 15 14 14 13 13 13 13 14 14 13 12 11 11 10 9 9 8 9 9 9 10 11 11 10 10 10 12 13 14 14 14 16 16 18 19 21 22 23 23 23 23 24 25 27 28 28 28 28 29 30 31 33 36 40 43 46 47 47 46 47 47 48 48 49 48 47 46 45 43 42 42 40 39 38 37 36 35 34 34
16 16 15 15 14 15 16 16 15 14 13 13 13 14 15 16 15 13 13 12 11 11 11 10 11 11 12 13 13 13 13 12 10 11 12 13 13 13 14 15 16 17 19 21 22 22 22 22 23 24 26 28 29 29 29 30 31 32 34 36 39 42 45 46 47 47 48 48 48 48 48 47 46 45 44 43 42 41 39 38 37 36 35 35 35 35
18 18 17 15 15 15 16 16 15 14 14 14 14 15 16 16 16 14 14 13 12 12 12 12 12 13 13 13 14 14 15 13 11 10 10 12 13 14 14 14 15 16 18 19 20 21 22 23 23 23 25 27 29 30 31 31 32 34 36 37 39 42 44 46 46 47 47 48 48 47 46 45 44 43 42 42 41 40 39 37 36 36 35 36 36 36
19 19 19 17 17 17 18 17 16 16 15 15 15 15 15 15 16 15 14 13 12 12 13 13 14 14 14 14 15 15 16 15 13 11 10 9 12 13 13 14 15 16 17 18 19 20 22 23 23 23 24 26 28 30 32 32 33 35 37 38 40 42 43 45 45 46 46 46 46 45 44 42 40 39 39 39 40 40 39 38 37 37 37 37 37 37
20 20 19 18 18 18 18 18 17 17 16 15 16 16 15 15 16 17 16 15 14 14 14 15 16 17 18 19 19 18 18 17 15 13 10 8 9 11 12 13 14 15 16 17 18 20 22 22 23 23 23 25 27 29 32 33 34 35 37 39 40 41 42 43 44 44 44 44 44 42 40 38 36 35 35 36 38 39 40 40 39 39 39 38 38 38
20 20 19 19 18 18 18 18 17 17 16 16 17 17 17 18 18 19 19 19 18 17 17 16 16 17 18 18 18 19 20 18 16 14 12 9 9 10 11 12 13 14 15 16 18 19 21 22 23 23 23 23 25 27 31 33 35 36 37 39 40 41 42 42 43 43 42 41 40 38 36 34 32 32 33 34 36 38 40 41 41 41 40 40 39 38
19 19 19 18 18 18 18 18 18 17 17 17 17 18 18 19 20 21 22 22 21 19 17 15 14 14 14 14 15 17 19 19 17 15 13 10 10 11 12 13 13 13 14 15 17 18 19 21 22 23 23 22 22 25 29 32 35 36 37 38 39 40 41 41 41 41 41 39 37 35 33 31 31 31 32 33 35 37 39 41 42 42 42 41 40 38
22 22 21 21 21 22 22 22 22 22 21 21 20 19 19 19 19 20 21 21 20 18 15 14 13 13 14 13 13 14 16 17 18 17 15 11 10 11 13 13 13 13 13 13 15 17 18 19 21 22 23 22 22 23 26 31 34 36 37 38 38 39 39 39 39 39 38 37 35 33 31 30 30 31 32 33 34 36 38 40 41 42 42 41 39 38
24 25 25 25 26 26 26 26 25 25 25 24 23 21 20 20 20 19 20 19 18 16 15 12 9 9 12 13 13 13 13 15 17 19 17 14 11 11 12 13 13 13 12 12 14 15 16 17 18 21 23 24 23 23 25 28 32 35 36 37 38 38 37 37 37 37 36 35 33 31 30 30 30 31 32 33 34 36 37 38 39 40 40 39 37 35
23 24 25 26 26 27 27 27 27 27 27 26 25 24 22 21 20 20 19 17 16 17 17 13 9 7 7 10 13 13 12 13 16 18 17 15 12 11 12 12 13 13 12 11 13 14 15 15 17 19 21 24 24 24 25 27 30 33 36 37 37 37 36 36 36 36 35 34 33 31 30 30 31 31 32 33 34 35 36 37 37 38 37 36 35 34
20 21 22 23 24 25 26 26 27 27 26 26 25 24 23 22 22 22 21 18 17 17 18 17 14 11 10 13 14 14 14 14 15 16 17 14 13 12 11 12 13 13 11 9 10 12 13 15 16 18 20 22 24 25 25 26 28 31 34 36 37 37 37 37 37 37 36 35 34 33 32 31 31 32 32 33 33 34 34 35 35 36 36 35 34 33
18 18 19 20 20 21 22 23 23 24 24 24 24 24 23 23 23 24 23 20 18 18 18 18 17 15 14 12 10 10 12 13 14 15 16 15 12 11 11 12 13 13 11 8 5 5 8 12 16 18 20 21 23 25 26 26 27 29 31 34 36 37 38 38 38 38 37 37 36 35 34 33 32 32 32 32 32 32 33 33 34 35 35 34 34 33
19 19 19 19 18 18 18 19 19 20 20 21 21 21 22 22 23 23 22 21 21 21 20 18 17 17 16 9 5 4 5 10 13 15 17 16 13 11 11 12 13 13 13 10 4 0 2 6 11 16 19 21 22 25 26 27 26 27 28 30 33 35 36 37 38 38 38 37 37 36 35 34 32 32 31 31 31 32 32 33 34 35 35 34 34 34
20 20 20 19 18 18 17 17 17 18 18 18 18 19 19 20 21 22 22 22 23 23 22 20 19 19 18 14 10 7 7 9 12 15 17 15 13 12 13 13 13 13 14 15 10 4 2 1 4 10 16 19 21 24 26 27 27 26 25 26 28 30 32 34 35 36 36 36 36 35 34 33 32 31 30 30 31 32 32 33 34 35 35 34 34 34
21 20 20 20 19 18 18 18 18 18 18 17 17 17 18 18 20 20 21 22 23 24 23 22 20 20 20 20 18 16 15 13 12 14 16 15 12 11 13 14 13 13 14 15 15 11 5 2 2 4 10 15 19 22 25 27 28 26 25 24 25 26 27 29 31 33 34 34 34 34 33 32 31 30 29 30 30 32 33 33 34 35 35 34 34 34
21 21 21 20 20 19 19 19 18 18 18 18 18 17 17 18 18 19 20 21 23 25 25 22 21 20 19 19 19 20 19 16 14 14 15 16 13 11 12 13 13 13 12 13 13 12 9 6 3 3 5 10 15 19 22 26 28 29 27 25 25 25 25 25 26 28 30 31 32 32 32 31 31 30 29 30 30 31 32 33 34 35 36 35 35 34
21 21 21 20 20 19 19 19 19 19 19 19 18 18 18 18 18 19 20 20 22 24 25 25 23 22 21 20 19 19 19 17 15 15 16 17 15 13 12 13 14 13 12 12 12 11 9 9 7 5 3 4 9 14 19 23 27 30 30 29 27 26 26 25 25 26 26 27 28 30 31 31 31 31 31 31 31 32 33 33 34 35 36 37 36 34
21 21 21 20 20 20 20 20 19 19 19 19 19 18 18 18 19 19 19 20 20 22 24 26 26 25 24 23 22 21 20 18 17 17 18 19 17 14 13 13 14 14 13 13 12 11 10 9 9 9 6 4 5 8 14 20 24 27 29 30 30 30 29 28 27 26 25 25 26 27 29 30 31 32 32 32 32 33 33 33 34 35 36 37 37 36
21 21 21 21 20 20 20 20 20 20 19 19 19 18 18 19 19 19 19 19 19 21 22 24 26 26 26 25 24 23 21 18 17 18 19 19 19 17 15 14 14 15 16 14 13 13 12 10 9 9 9 8 6 5 9 15 19 23 25 28 29 31 31 31 31 29 27 26 26 27 28 29 30 30 31 32 32 33 33 33 34 35 36 37 38 37
21 21 21 21 21 21 21 20 20 20 20 20 19 18 18 19 19 19 18 19 19 20 21 23 24 25 26 25 25 24 22 20 18 18 19 20 20 19 17 15 15 16 17 17 15 14 13 9 6 5 6 9 10 9 9 12 15 17 21 24 26 28 30 31 31 31 29 28 28 28 28 29 29 29 30 31 32 33 33 33 32 32 34 36 37 37
21 21 21 21 21 21 21 21 20 20 20 20 20 19 19 19 20 20 19 19 19 19 20 22 23 24 25 26 25 24 23 22 21 20 20 21 22 22 20 17 16 16 17 17 17 16 15 12 9 7 5 7 9 10 11 12 13 14 16 19 21 24 26 28 29 29 29 28 27 26 27 29 30 30 30 30 31 32 32 33 32 31 32 34 35 35
22 22 22 22 22 22 22 22 22 21 20 20 21 20 20 19 19 19 19 19 19 19 19 20 22 23 24 25 25 25 24 23 23 22 22 23 23 23 22 20 18 17 17 18 18 17 17 15 14 13 11 10 9 10 11 12 13 14 14 13 14 17 21 24 26 27 27 27 26 26 25 26 27 28 29 29 30 31 32 31 31 31 32 32 33 34
21 22 22 22 22 22 22 22 22 21 21 20 20 20 19 19 18 18 17 18 19 19 18 18 19 21 23 24 25 25 25 25 24 24 24 24 25 25 24 22 20 19 18 18 18 18 18 16 15 15 14 12 11 11 11 13 14 15 15 14 13 14 18 21 23 25 25 25 25 25 24 24 25 27 27 28 29 31 32 31 31 32 32 32 32 31
18 18 19 18 18 17 17 17 18 18 18 18 18 18 18 18 18 17 17 17 18 18 17 17 17 17 18 20 22 23 24 25 25 26 25 25 26 26 26 24 22 20 19 18 18 18 18 18 17 16 15 14 12 11 11 12 14 15 16 15 13 12 12 17 21 23 24 24 24 24 23 23 24 25 25 26 27 29 30 30 31 31 30 31 31 31
16 16 16 16 15 15 15 15 15 15 15 14 15 16 17 17 17 18 18 18 18 18 17 16 16 16 16 16 17 18 20 23 25 26 26 26 26 27 26 25 24 23 21 19 18 17 17 18 17 17 16 15 13 12 11 11 13 15 16 16 14 11 8 11 16 21 23 24 23 23 23 23 23 24 24 25 25 26 26 27 28 28 28 29 31 31
20 20 19 19 18 17 16 16 16 16 15 15 15 16 17 17 18 19 19 19 19 18 17 16 16 16 16 16 16 16 16 19 22 24 26 27 27 27 27 26 25 24 23 21 19 17 16 17 17 17 16 15 14 14 13 12 12 13 15 16 16 14 12 11 14 18 21 22 23 23 23 22 22 22 23 24 25 25 25 26 26 27 28 29 30 31
22 22 22 22 21 20 20 20 19 19 18 18 18 17 17 18 18 19 19 20 19 18 17 16 15 15 15 15 14 14 15 16 18 21 24 26 26 27 27 26 25 25 24 23 21 19 17 16 16 16 16 15 15 15 14 13 12 13 14 15 16 16 14 12 13 17 20 21 22 23 24 22 21 20 21 22 23 24 25 25 26 26 27 28 29 29
22 22 22 22 22 22 22 22 22 21 21 21 21 21 20 19 19 19 19 19 19 19 18 17 16 15 14 14 13 13 13 14 15 17 20 23 25 26 27 27 26 25 24 23 22 20 18 17 16 15 15 15 16 16 15 14 13 13 14 15 15 15 14 13 13 16 18 19 20 22 23 22 20 19 19 20 21 23 25 26 26 26 26 27 28 29
20 20 20 20 20 21 21 21 21 21 21 22 22 22 21 20 20 19 19 19 19 19 19 18 17 16 16 14 13 12 13 14 15 15 15 18 22 25 26 27 27 26 24 23 22 20 19 18 17 16 15 15 14 15 15 15 15 15 15 15 15 15 14 14 15 16 18 19 19 20 21 22 20 19 18 18 19 21 23 26 27 26 26 26 27 29
19 19 19 19 19 19 19 19 19 19 20 21 21 21 21 21 21 21 19 19 18 18 18 18 17 17 16 15 15 14 14 15 15 14 13 14 17 21 24 26 26 26 25 24 22 21 20 19 18 17 17 16 14 13 14 15 16 16 16 16 16 15 15 14 15 17 18 18 19 19 21 21 20 19 17 16 17 18 20 23 26 27 26 27 28 29
20 19 19 19 19 19 19 18 18 18 19 19 19 20 21 21 22 22 21 19 18 17 17 17 17 16 15 15 16 16 16 16 15 14 13 13 14 16 19 22 23 23 23 22 21 20 19 19 19 19 19 17 16 14 13 14 15 16 16 16 17 16 15 14 15 17 18 18 19 19 20 21 20 19 17 16 16 16 17 20 23 27 29 29 30 30
21 20 20 20 20 19 19 19 18 18 18 18 18 19 19 20 21 21 21 20 19 18 18 18 17 15 14 14 15 16 16 16 15 14 14 14 13 14 16 18 18 18 18 17 16 16 16 16 18 21 22 21 19 16 14 13 13 14 15 16 17 17 16 15 15 16 18 18 19 20 20 20 19 18 17 16 16 16 16 17 20 25 29 31 32 32
21 21 21 21 21 20 20 19 19 18 18 18 18 18 19 19 20 20 21 21 20 20 19 19 18 16 14 14 15 16 17 16 15 14 14 14 13 13 15 16 16 16 14 12 11 11 10 9 11 15 21 24 25 22 17 14 13 13 14 15 16 16 16 15 15 16 17 18 19 19 21 20 19 18 17 17 16 15 15 16 17 21 27 31 32 33
Wind_Direction
317 317 317 318 319 318 314 309 305 298 286 274 263 255 251 248 246 244 243 242 240 239 238 238 238 240 241 243 244 247 249 250 251 250 248 246 245 244 242 241 240 240 241 243 244 245 245 244 242 241 239 239 239 240 240 241 241 241 242 242 241 238 233 229 226 221 215 209 206 204 202 202 202 203 204 204 203 202 200 199 199 198 199 199 199 199
319 319 320 319 320 318 315 310 308 305 298 289 279 271 264 259 255 253 250 248 246 245 244 243 242 242 242 243 243 243 245 246 247 248 248 247 246 245 243 242 241 240 241 242 244 245 245 245 244 243 242 241 241 241 241 242 242 242 242 242 240 237 232 230 229 225 217 211 207 205 203 202 202 203 204 204 203 201 200 199 198 198 199 199 199 198
322 322 321 322 321 318 314 312 309 306 302 297 291 285 277 270 266 263 261 258 255 252 250 248 248 247 246 246 245 245 244 245 245 245 245 245 245 245 245 244 243 243 242 242 243 243 243 244 244 243 243 242 242 242 243 242 242 242 242 242 240 237 234 234 233 228 220 213 209 206 204 203 203 203 204 203 202 201 200 199 198 198 199 198 198 198
318 317 317 319 319 315 312 310 308 305 302 299 296 292 286 280 275 272 270 268 265 261 258 255 253 252 251 251 250 249 248 247 247 246 245 244 244 243 244 244 245 244 243 243 242 242 241 242 242 242 241 241 241 241 242 242 242 242 242 242 241 239 237 237 236 230 221 215 210 207 205 204 203 203 203 203 201 200 199 198 198 197 197 197 197 197
311 310 311 314 314 310 307 305 303 302 300 298 296 293 290 285 282 279 278 275 272 268 266 263 260 258 257 257 256 254 253 252 251 251 250 249 248 246 244 243 242 242 242 241 241 241 241 241 241 240 240 239 239 239 240 240 241 241 241 241 241 241 241 241 238 233 225 217 211 207 205 204 203 203 203 202 200 199 198 198 197 196 196 196 196 197
306 305 306 308 306 304 304 304 303 302 301 299 296 294 292 289 287 285 282 279 277 275 273 271 269 268 266 264 263 261 258 257 256 255 255 254 253 252 249 246 243 240 239 238 239 239 240 240 240 240 239 239 238 237 238 239 239 240 240 240 240 241 243 244 242 238 231 222 214 208 205 203 202 201 201 200 199 198 197 197 196 195 195 195 195 196
303 303 304 304 302 301 302 304 305 306 305 303 299 297 294 291 289 287 284 283 281 279 278 277 276 275 273 271 269 267 264 262 260 258 257 256 255 254 252 250 247 244 242 240 240 240 241 241 242 242 241 241 239 238 238 238 238 239 240 239 239 240 242 245 246 243 236 226 217 210 205 203 201 199 199 198 198 197 197 196 196 195 194 194 194 195
302 302 301 300 301 301 301 303 306 307 307 303 301 299 297 294 292 290 288 286 284 281 279 278 277 276 274 273 271 270 268 266 263 261 258 256 254 253 252 250 249 247 246 244 243 243 243 244 244 244 244 244 243 242 240 239 239 239 239 239 239 239 239 242 245 244 238 229 219 211 205 202 199 198 197 197 197 198 198 197 196 195 194 193 194 195
300 300 299 297 296 298 299 300 302 305 307 304 299 296 296 295 294 292 289 287 284 281 278 276 274 273 272 271 271 270 268 267 264 262 259 256 254 252 250 249 249 248 247 247 246 246 246 247 247 247 247 247 247 246 245 243 242 241 240 240 240 239 239 240 242 242 237 231 221 211 205 201 198 196 195 195 197 198 198 198 197 195 194 193 194 195
298 298 298 296 294 293 293 294 295 299 304 304 299 291 285 285 288 289 287 284 281 279 277 273 270 269 269 269 269 268 267 266 265 263 260 257 255 253 251 250 250 250 250 249 249 249 249 249 249 248 248 249 249 249 248 247 245 243 242 241 241 240 239 240 240 238 234 228 219 210 203 200 197 195 194 195 196 198 199 198 197 195 194 194 194 195
300 299 298 297 295 292 289 288 289 294 301 302 298 290 282 274 272 276 279 278 277 276 275 272 269 267 266 266 267 266 266 265 265 264 262 260 257 255 254 254 254 254 254 254 253 253 254 254 252 251 249 248 248 248 248 246 244 243 241 241 240 240 239 238 237 234 229 224 216 207 201 198 196 195 194 195 196 198 198 198 197 196 196 195 195 195
299 299 299 297 296 295 292 289 290 293 297 297 293 286 277 270 263 260 263 269 273 273 273 273 272 270 266 264 264 265 265 264 264 263 263 262 260 259 258 257 258 258 258 258 257 257 256 257 257 255 252 249 246 245 243 241 239 238 237 237 238 239 239 237 234 230 225 219 211 203 197 195 194 194 194 195 196 197 198 198 198 197 196 196 196 195
295 296 296 296 295 295 294 293 292 291 288 280 273 271 273 271 264 257 256 261 266 270 271 273 273 273 271 268 265 263 263 263 264 264 263 262 261 260 259 259 260 261 261 261 260 258 257 256 257 257 256 253 248 243 239 235 233 232 232 234 237 238 238 235 231 225 217 209 202 197 193 192 192 193 194 195 196 197 198 198 198 197 196 196 196 196
293 294 294 294 294 295 295 294 293 290 286 278 270 267 272 275 270 263 261 263 266 268 269 270 272 273 273 271 267 264 262 262 263 264 263 262 260 259 257 257 258 259 260 260 260 259 257 255 254 254 255 255 251 244 238 233 229 229 230 233 235 235 231 225 219 211 203 197 193 190 189 189 191 193 194 194 195 196 197 197 197 197 197 197 197 198
292 293 292 291 292 294 295 295 294 292 289 286 281 278 276 274 269 265 264 266 269 271 271 271 273 273 272 270 269 267 264 261 260 261 261 261 261 260 257 255 255 255 255 255 255 256 257 254 251 250 250 251 250 244 237 231 228 228 230 231 230 225 216 208 201 196 191 189 187 187 187 189 191 192 193 194 195 196 197 197 198 197 197 198 198 199
287 287 287 288 289 290 290 292 292 292 291 290 287 283 279 274 269 266 264 266 271 273 273 274 277 277 273 269 268 267 265 259 255 255 256 259 260 260 258 254 251 250 249 249 249 251 252 251 250 248 247 246 246 242 234 227 224 225 228 228 223 214 203 195 190 187 186 186 186 187 188 190 191 192 193 194 196 198 199 200 200 199 198 198 198 199
281 280 281 284 285 285 287 288 289 289 291 291 289 285 280 275 272 269 266 267 269 270 267 268 272 279 277 272 268 266 262 255 251 250 252 254 258 259 257 252 247 246 246 245 245 246 246 247 246 245 244 244 243 239 233 225 220 218 220 221 217 208 198 191 188 187 187 187 187 188 189 191 191 192 192 194 196 198 200 201 201 200 199 198 198 199
277 275 276 278 279 282 285 285 285 287 288 289 289 287 283 278 274 271 267 265 264 262 261 260 260 263 274 271 269 266 262 253 247 247 251 253 256 257 256 252 247 244 245 244 243 243 243 242 242 241 241 242 240 237 234 227 219 213 209 209 208 204 199 194 192 191 191 190 190 190 191 192 192 193 193 194 196 197 198 199 200 200 199 199 199 200
276 274 272 273 275 279 281 281 281 283 285 286 287 288 285 282 277 272 266 262 258 256 257 258 259 261 265 268 269 268 269 264 252 247 253 256 256 255 253 250 246 244 244 244 243 242 240 239 238 238 239 239 238 235 233 229 222 214 205 201 199 199 198 197 195 194 194 193 192 191 192 193 193 194 195 196 197 197 197 198 198 199 200 200 201 203
275 273 271 272 275 277 276 275 276 278 280 282 284 285 285 285 282 276 269 263 258 256 255 256 257 260 263 267 269 269 269 268 259 252 255 260 260 256 252 248 244 243 244 245 244 242 239 236 234 233 233 233 233 232 230 228 224 217 208 201 197 195 195 195 194 193 192 192 191 191 192 193 194 196 197 198 199 199 198 198 198 200 201 203 204 205
273 271 269 270 272 274 273 273 274 275 276 279 280 281 282 283 281 276 271 266 261 257 255 254 256 259 262 265 266 267 267 265 256 250 258 264 263 259 254 249 246 244 244 246 246 244 240 236 233 230 228 227 228 228 227 226 223 218 211 203 198 195 194 192 192 191 191 191 191 192 193 194 196 198 200 201 202 201 201 200 200 201 203 204 205 206
268 269 270 270 269 268 270 273 274 274 274 275 276 276 278 280 279 276 271 266 260 257 256 255 258 261 262 263 263 263 265 265 256 249 259 265 265 260 253 250 247 245 245 247 248 246 242 238 234 230 227 224 223 222 222 222 221 218 212 206 201 197 194 193 191 191 191 192 193 194 195 197 199 202 204 205 205 204 203 202 201 202 204 205 206 206
262 266 269 269 267 267 268 271 273 273 272 271 271 271 274 275 276 275 274 269 263 260 260 260 263 264 263 260 259 261 262 261 257 252 252 257 263 261 254 249 246 245 245 246 248 247 245 240 235 231 227 224 221 219 218 217 218 217 213 208 204 200 197 195 194 193 193 194 195 196 198 200 203 206 208 209 209 208 206 204 203 203 205 206 206 206
260 262 265 265 265 266 268 269 271 272 272 271 270 270 271 271 272 274 275 274 271 269 268 266 266 265 262 260 259 259 258 257 253 246 243 250 259 260 254 248 244 244 246 248 248 247 245 242 238 233 228 225 222 219 216 214 213 213 212 209 206 203 200 198 197 197 197 197 197 199 201 204 208 210 212 213 212 211 209 206 205 204 205 206 207 207
261 262 262 263 263 264 266 267 269 271 272 272 272 272 272 272 273 274 274 273 272 269 266 264 262 261 259 259 258 257 256 254 248 240 235 245 257 258 253 247 243 243 246 249 248 247 245 243 240 236 231 225 222 219 216 213 211 209 209 207 205 203 201 200 200 199 200 200 202 204 207 210 213 215 216 216 215 213 212 210 208 207 207 207 207 208
261 262 262 262 263 263 264 265 266 267 268 269 270 271 272 274 276 275 273 270 267 262 257 258 258 258 258 258 256 253 253 251 246 238 232 240 253 256 252 246 241 240 244 246 247 246 243 242 242 239 234 227 221 218 217 215 212 209 207 205 203 202 202 201 201 201 202 204 206 209 213 216 218 219 219 218 217 215 214 213 212 211 210 210 209 208
261 262 262 263 263 263 263 264 264 264 265 265 266 267 269 273 273 270 266 263 260 257 252 254 255 256 257 257 256 252 248 246 243 238 232 234 245 254 251 244 239 236 238 241 242 242 240 239 240 240 237 230 223 218 217 217 216 214 211 208 206 205 204 205 205 206 207 210 213 216 218 220 221 221 220 219 217 216 215 215 214 213 212 210 209 208
263 263 263 262 262 262 262 262 263 263 263 263 262 262 263 265 265 262 259 259 258 256 253 252 251 253 255 255 256 254 245 240 239 236 232 229 237 250 249 243 238 233 231 234 238 239 237 235 235 237 237 233 227 220 215 216 218 219 218 216 214 213 212 213 213 214 216 217 219 221 222 222 221 220 219 218 217 216 215 214 213 212 210 207 206 206
268 266 265 264 262 262 262 261 261 261 261 260 259 258 257 256 256 256 257 257 256 254 252 252 251 252 255 258 260 257 249 239 235 233 229 226 233 244 244 240 235 230 222 227 237 241 238 234 231 231 233 233 229 222 215 212 214 218 221 222 222 221 221 221 221 221 221 222 222 222 222 221 220 218 218 217 216 215 214 213 211 209 206 204 204 205
274 273 271 269 266 263 262 260 260 259 258 257 256 254 252 250 250 252 254 255 254 252 252 251 251 251 253 257 260 259 252 241 232 227 225 222 228 237 235 232 230 224 214 213 228 251 245 239 234 230 229 229 228 223 217 211 209 212 216 219 221 222 223 223 223 223 222 222 221 221 220 218 217 215 215 215 215 215 214 212 209 206 204 203 204 206
279 279 277 275 272 268 265 262 261 259 258 256 254 252 250 248 247 249 251 251 251 251 252 252 250 248 247 249 251 253 251 240 230 225 226 218 222 230 224 224 225 221 211 204 196 7 251 240 235 232 229 227 226 223 218 212 207 206 207 211 213 216 218 219 219 219 219 219 219 218 216 215 213 213 213 214 215 215 214 212 209 206 204 204 205 206
279 279 278 276 275 273 270 267 264 262 259 257 254 251 249 248 247 247 247 247 247 249 251 251 249 246 244 243 244 249 256 246 232 224 222 218 221 226 221 220 220 218 212 208 211 222 237 198 220 225 225 225 225 224 220 215 210 206 203 203 204 207 210 212 214 214 215 215 215 215 214 213 212 213 213 214 215 215 214 213 210 208 206 205 206 207
278 277 277 276 276 274 271 269 266 264 261 258 255 253 251 250 248 247 245 244 245 247 249 249 248 245 243 243 245 249 253 249 237 225 219 216 217 220 220 218 217 214 211 211 217 225 234 220 177 204 217 220 222 223 223 220 216 212 208 204 202 201 203 205 208 209 210 212 213 213 214 215 216 216 217 217 217 216 215 214 212 211 209 207 207 207
275 275 275 275 274 273 270 268 266 263 261 258 256 254 253 252 251 249 247 245 245 246 247 248 247 244 242 243 245 247 249 247 237 227 221 213 212 214 214 215 215 213 209 210 216 225 233 230 207 183 210 217 219 221 223 223 222 220 217 213 209 205 201 201 203 205 207 209 211 212 214 216 218 220 221 221 220 218 216 215 214 213 211 209 208 207
272 272 272 272 272 271 270 268 266 263 261 259 256 255 253 253 252 252 250 248 247 246 247 247 247 245 243 243 244 246 245 242 236 229 225 214 210 210 213 215 216 213 209 210 213 219 228 228 219 206 194 207 217 221 222 223 224 224 223 222 220 216 211 207 205 205 207 209 210 212 214 215 217 218 220 221 220 219 218 217 215 214 213 212 209 208
268 269 269 269 269 269 269 268 267 265 262 260 257 255 253 253 253 252 251 250 249 249 249 249 249 247 246 245 245 246 246 243 237 231 227 218 211 208 214 220 219 215 211 212 213 215 221 223 222 219 214 205 213 223 226 226 225 226 226 227 227 225 222 218 215 213 213 213 214 214 215 215 216 217 218 219 219 219 218 217 217 216 216 214 212 210
265 266 266 266 267 267 267 267 266 266 264 263 260 257 254 254 253 251 251 250 251 252 252 252 251 250 249 247 247 247 247 245 240 233 225 218 211 210 216 223 222 218 215 215 214 216 218 221 222 222 223 222 215 212 220 226 227 227 227 228 229 229 229 226 225 223 222 221 220 220 219 218 217 217 218 219 219 219 218 217 216 216 217 217 215 213
262 263 264 264 265 265 265 265 265 265 265 265 263 260 257 256 254 252 251 251 251 252 253 253 253 253 252 251 249 248 246 246 241 232 223 217 212 212 217 221 222 220 219 218 216 215 216 219 217 216 223 227 225 220 214 216 219 222 226 227 228 228 229 229 228 228 227 226 225 225 223 222 220 219 218 218 218 218 217 216 215 215 215 216 216 215
256 258 260 261 261 262 262 263 263 263 263 263 263 262 259 258 257 256 253 253 252 252 252 252 253 253 253 253 252 250 246 243 239 233 225 220 216 216 217 219 222 223 222 220 217 216 216 219 221 220 220 224 224 221 216 212 211 212 217 222 225 227 227 227 227 226 226 225 225 224 224 223 222 220 218 217 216 216 216 216 215 214 213 213 213 213
252 254 256 258 259 259 260 260 260 260 260 261 261 261 259 257 255 253 253 253 254 254 254 254 254 254 254 254 254 252 247 242 237 233 229 225 222 220 218 219 221 222 219 217 217 217 218 221 225 226 225 224 220 216 211 208 208 207 204 207 216 223 225 224 223 223 222 221 220 220 220 219 218 216 215 214 213 213 213 213 213 213 213 211 210 210
247 250 253 256 257 258 259 259 258 257 256 257 258 257 256 254 253 252 251 252 253 254 255 256 256 256 256 255 254 253 250 244 239 234 231 228 225 223 222 221 221 221 219 216 216 217 218 221 225 227 227 226 223 218 211 207 206 204 202 203 210 217 220 221 221 219 217 216 216 216 215 215 214 213 212 211 211 211 211 210 211 212 213 212 211 210
249 248 250 253 255 257 259 260 260 259 257 257 257 256 254 252 251 250 251 251 251 252 252 252 254 255 255 254 253 252 251 247 242 237 234 230 228 225 224 222 221 220 219 217 216 217 218 219 222 225 226 225 224 221 215 209 205 205 206 207 208 210 215 220 220 218 214 213 212 212 212 211 211 210 209 209 209 209 210 210 210 211 211 212 212 212
261 259 260 260 263 266 269 272 273 273 273 271 267 263 258 253 249 247 247 249 250 250 249 249 249 251 252 252 251 249 248 246 243 240 236 233 230 227 224 222 220 219 218 217 217 218 218 219 221 224 225 223 222 222 219 209 204 205 208 208 204 199 199 211 215 216 214 212 211 210 209 209 209 208 208 208 208 208 208 209 211 211 211 211 212 213
267 268 268 268 269 270 273 274 276 277 277 276 274 271 268 262 255 249 247 247 247 248 247 245 245 247 250 251 250 247 244 243 242 240 238 235 232 229 226 223 221 219 218 218 218 218 218 219 222 224 223 221 222 224 222 214 207 204 207 207 206 206 210 209 208 209 211 211 210 209 208 208 208 208 208 208 209 209 209 209 210 211 211 211 212 214
262 264 264 264 265 266 267 268 270 271 272 272 270 270 271 271 267 260 253 248 246 245 243 241 240 243 246 248 247 245 243 241 240 238 237 235 233 230 227 223 221 219 218 219 219 219 218 219 222 222 221 220 221 223 223 219 214 210 209 208 209 212 218 217 211 208 207 207 209 209 208 207 206 207 207 209 210 210 210 210 211 211 211 211 212 214
258 259 259 259 260 260 261 263 265 266 267 267 266 266 267 269 271 270 264 257 250 244 240 235 234 237 242 244 245 244 242 239 235 233 233 233 232 231 228 224 222 220 220 220 220 221 220 221 220 218 216 218 221 224 223 221 217 214 212 208 209 211 214 216 214 211 207 206 206 207 207 206 205 206 207 208 210 211 212 212 212 212 212 212 213 215
253 254 255 255 256 257 258 259 260 261 261 262 262 262 262 263 265 267 267 263 256 248 241 235 232 233 238 241 241 241 241 240 236 231 227 227 228 228 226 224 223 221 221 221 222 222 224 224 222 217 213 215 219 223 223 221 219 216 213 209 207 207 210 211 212 212 211 207 205 204 204 203 205 207 209 209 210 212 214 214 214 214 213 213 215 217
251 252 252 252 253 254 255 256 256 257 257 258 259 260 259 258 258 259 261 261 258 251 243 235 231 231 235 238 239 239 240 242 238 231 221 218 221 223 223 223 222 221 222 222 223 223 224 224 223 220 217 216 217 220 221 220 220 219 216 210 207 207 210 208 209 211 212 209 206 203 201 201 204 206 208 208 210 212 214 215 215 215 215 215 217 219
250 250 250 250 251 251 252 252 252 254 255 257 258 259 258 256 254 253 254 255 255 252 247 238 232 230 232 235 237 238 239 241 240 234 225 217 214 214 216 217 218 219 220 222 224 225 225 226 225 222 219 218 218 219 220 220 219 218 216 212 209 209 208 207 207 208 209 208 206 204 203 203 204 205 205 208 211 213 214 215 215 214 214 215 217 219
247 248 248 249 249 249 250 249 249 250 252 254 256 258 258 256 254 251 250 249 249 250 248 244 237 233 233 235 236 236 235 237 237 236 231 225 215 206 206 208 210 211 214 219 222 225 229 233 233 229 224 220 218 218 220 220 218 215 214 213 211 209 207 206 205 205 206 205 204 204 204 204 204 205 206 210 213 214 213 214 214 214 214 214 215 217
243 244 245 247 247 247 247 246 246 246 248 250 252 254 256 255 254 251 249 246 245 245 246 247 245 243 241 239 237 234 232 232 233 235 234 228 214 202 199 199 199 199 203 209 214 218 224 232 239 239 235 229 223 219 217 217 214 212 212 213 211 209 207 206 204 203 202 202 202 202 201 202 203 205 207 211 213 214 213 213 213 214 214 213 213 214
Height
732 731 731 731 730 729 729 728 728 728 728 728 729 729 729 730 730 730 731 731 731 731 731 731 731 732 733 733 734 735 736 738 738 739 740 741 741 742 743 743 744 745 746 747 748 749 750 751 752 753 754 754 755 756 757 758 759 760 761 762 763 764 765 766 767 768 768 768 768 768 769 770 771 774 776 778 780 783 785 786 787 789 791 792 794 796
732 731 731 731 730 730 729 728 728 728 728 728 728 728 728 729 729 729 729 729 729 729 728 728 728 729 730 730 731 732 734 735 736 737 738 738 739 739 740 740 741 741 742 743 745 746 747 748 749 750 751 752 753 754 755 756 756 757 758 759 760 761 763 764 764 765 765 766 766 766 767 768 769 771 772 775 777 779 781 783 785 786 788 790 792 793
732 732 731 731 731 730 729 728 728 728 727 727 727 727 727 727 727 727 727 727 727 726 726 726 726 726 727 728 729 730 731 733 734 735 736 736 736 737 737 736 737 737 739 740 741 743 744 745 746 747 748 749 751 751 752 753 753 754 755 756 757 759 760 761 762 762 762 763 764 765 766 766 767 768 770 772 774 776 778 780 782 783 785 787 789 791
733 732 731 731 731 730 730 729 728 727 727 726 726 726 726 726 726 726 726 726 725 725 724 724 724 725 726 726 727 728 730 731 732 733 733 733 734 734 734 734 734 734 736 737 738 739 740 741 742 743 744 746 747 748 750 750 751 751 752 753 754 756 757 759 759 760 760 761 761 762 763 765 766 766 768 769 771 774 776 777 779 781 783 785 787 789
732 732 731 731 730 730 729 729 728 727 726 725 725 724 724 724 724 724 724 724 724 724 723 723 723 723 724 724 725 726 728 729 730 731 731 731 731 731 731 731 731 732 733 734 735 736 737 738 738 740 741 742 743 745 746 747 748 749 749 750 751 753 755 756 757 757 758 759 759 760 761 762 763 765 766 767 769 771 773 775 776 778 780 782 785 786
732 731 731 731 730 729 729 728 727 727 726 725 724 723 723 723 723 723 723 723 722 722 722 721 721 721 721 722 723 725 726 727 728 728 728 729 729 729 729 728 729 730 731 732 732 733 733 734 735 736 737 738 739 741 742 743 745 745 746 747 748 750 752 753 754 755 756 756 757 758 759 760 761 763 764 766 767 770 772 773 774 776 778 780 782 784
731 731 731 730 729 729 728 727 727 726 726 725 723 722 722 721 721 721 721 721 721 721 720 720 720 720 720 720 721 723 724 725 725 725 726 726 726 727 727 727 728 728 729 729 729 730 730 731 732 732 733 734 735 736 738 739 741 741 742 743 745 747 749 751 751 752 753 754 755 756 757 758 760 761 763 765 767 769 771 772 773 774 775 777 780 782
731 731 730 730 729 728 727 727 726 726 726 725 724 722 721 721 720 720 720 720 720 720 719 719 718 718 719 719 720 721 722 722 722 723 723 724 725 725 726 726 726 727 727 727 727 727 727 728 728 729 730 731 731 732 734 735 736 738 739 740 741 743 746 748 749 750 750 751 751 753 755 756 757 759 761 763 766 768 770 771 771 772 773 775 777 780
732 731 730 729 729 728 727 726 726 726 725 725 724 723 722 721 720 720 720 719 719 719 719 718 718 718 718 719 720 720 721 721 721 722 722 723 723 723 724 725 725 726 726 725 725 725 725 725 725 725 726 726 727 728 729 731 732 734 735 736 738 740 742 744 746 747 747 747 748 750 751 753 755 756 758 761 764 766 768 770 771 771 772 773 776 778
732 731 730 729 728 728 727 726 725 725 724 724 723 723 722 721 721 720 720 719 719 719 719 719 718 718 719 719 720 720 720 721 721 721 721 721 721 722 722 723 723 724 724 724 723 723 722 722 722 722 722 723 723 724 725 726 728 730 731 732 734 736 738 741 742 744 743 743 744 746 748 750 751 753 756 758 761 764 766 768 769 770 771 772 774 776
732 731 730 729 728 727 726 726 724 724 723 723 722 721 721 721 721 721 721 720 719 719 718 718 718 719 719 719 719 720 720 720 720 720 720 720 720 720 721 721 721 721 721 721 721 720 720 719 719 719 719 720 720 721 721 723 724 726 727 729 731 732 734 736 738 739 739 740 740 742 744 747 749 751 753 756 759 762 764 766 767 768 769 771 772 774
731 730 729 728 727 726 726 725 724 723 722 722 721 721 721 721 721 721 721 720 719 719 719 718 718 718 719 719 719 719 719 719 718 718 718 718 718 718 718 718 718 718 718 718 718 718 718 717 717 717 717 718 718 719 719 720 721 722 724 726 727 729 730 732 734 735 735 736 736 738 741 743 746 749 751 754 757 760 762 764 765 766 767 769 771 772
731 730 729 728 727 726 725 724 723 722 722 721 721 721 720 720 720 721 720 720 719 719 719 718 717 717 717 718 718 718 718 718 717 717 716 716 716 716 716 716 716 716 716 716 715 716 716 716 716 716 716 717 717 717 717 718 718 720 721 722 723 725 726 727 729 731 731 732 733 735 737 741 744 747 750 753 756 758 760 762 763 764 766 767 768 770
729 729 728 727 726 725 724 724 723 722 721 721 721 720 720 720 720 720 719 719 718 718 718 717 717 716 716 716 717 717 717 717 716 716 715 715 714 715 715 715 714 714 714 714 713 713 714 715 716 716 716 716 716 717 717 717 716 717 717 718 720 721 723 724 726 727 728 729 731 733 736 739 742 746 749 751 754 756 758 760 762 763 764 765 766 768
729 728 727 726 725 724 724 723 722 722 721 721 720 720 719 719 719 719 718 718 717 717 717 716 716 716 716 715 715 716 716 716 716 715 714 713 712 713 713 713 713 713 713 712 712 712 712 713 714 714 715 716 716 717 717 716 716 715 715 716 717 719 721 722 724 725 726 728 730 732 735 738 741 744 747 750 752 755 757 759 761 761 762 763 765 767
728 727 726 725 724 723 723 722 722 721 721 720 720 719 719 718 718 717 717 717 716 716 716 716 716 715 714 713 713 714 715 715 714 714 713 711 711 711 711 712 712 711 711 711 711 711 711 711 712 713 714 714 716 716 717 716 715 714 713 714 716 718 720 721 722 724 725 727 729 732 734 737 740 742 745 748 750 753 755 757 758 759 761 762 763 765
726 726 725 724 723 722 721 721 721 721 720 719 719 719 718 718 717 716 716 716 716 716 716 716 715 714 713 712 712 712 713 713 713 712 712 711 710 710 710 710 710 710 710 710 710 710 710 710 711 711 712 713 714 715 716 716 715 714 713 713 714 716 718 720 721 723 725 727 729 731 734 736 738 741 743 746 748 750 752 754 755 757 758 760 762 764
724 724 724 723 722 721 721 720 720 719 719 719 718 718 717 717 716 716 715 715 715 715 714 714 714 714 713 712 711 711 712 712 712 711 711 710 709 708 708 709 709 708 708 708 708 709 709 709 709 710 710 711 713 714 715 715 715 714 714 714 714 716 717 719 721 723 725 726 728 731 733 735 737 739 741 744 746 748 749 751 752 754 756 758 760 762
723 723 722 722 721 720 720 719 719 718 718 718 717 717 716 716 715 715 714 714 714 713 713 713 713 712 712 711 711 711 711 711 711 711 710 709 708 708 707 707 707 707 707 707 707 707 708 708 708 708 709 710 711 712 713 714 714 714 715 715 715 716 717 718 720 721 723 725 727 729 731 733 735 737 740 742 744 746 747 749 751 752 754 756 758 761
722 721 721 721 720 719 719 718 718 718 717 717 716 716 715 715 714 714 713 713 712 712 712 712 711 711 711 711 710 710 710 711 711 710 709 708 707 706 706 706 706 706 705 705 705 706 706 706 707 707 708 709 710 711 712 712 713 714 714 715 716 716 716 717 718 720 722 724 726 728 729 731 734 736 738 741 742 744 746 747 749 751 753 755 757 759
721 720 719 720 720 718 717 716 716 717 716 716 716 715 714 714 713 713 712 712 711 711 711 711 710 710 710 710 710 709 709 709 709 709 708 706 706 705 705 705 704 704 704 703 704 704 705 705 705 706 706 707 708 709 710 711 712 712 713 714 715 715 716 716 717 719 721 722 724 726 728 730 732 735 737 739 741 743 744 746 748 750 751 753 755 756
720 718 718 718 718 717 716 716 716 716 716 716 715 714 714 713 713 712 711 711 711 710 710 709 709 709 709 709 708 708 708 708 708 708 707 706 704 703 703 703 703 703 702 702 702 702 703 703 704 704 705 706 707 708 709 710 710 711 712 713 714 715 715 716 716 718 719 721 723 725 727 730 732 734 736 738 740 741 743 744 746 748 750 751 753 754
719 717 717 717 716 716 715 715 715 714 714 714 714 713 713 713 712 711 711 710 710 709 708 708 707 707 707 707 706 706 706 706 706 707 706 705 702 701 702 702 702 701 701 701 701 701 701 702 703 703 704 705 706 707 708 708 709 710 711 712 713 714 715 715 716 717 719 721 722 724 726 729 731 733 735 736 738 740 741 742 744 746 747 749 750 752
717 716 716 715 715 714 714 714 713 713 713 713 712 712 712 712 711 711 710 710 709 708 707 707 706 706 705 705 705 705 704 705 705 706 705 703 702 701 701 701 701 700 700 700 700 700 700 701 701 702 703 704 705 706 707 708 708 709 710 711 712 713 714 715 716 717 719 720 722 724 726 728 730 731 733 735 736 738 739 741 742 743 745 746 748 749
716 715 714 714 713 713 712 712 712 712 711 711 711 711 711 711 710 710 709 709 708 707 706 706 705 704 703 704 703 703 702 703 703 704 704 702 701 700 700 700 700 700 699 699 699 699 699 699 700 701 702 703 704 705 706 707 707 708 710 711 712 713 714 715 716 717 718 720 721 723 725 727 729 730 732 733 735 736 737 738 740 741 742 744 746 747
714 713 712 712 711 711 711 711 710 710 710 710 710 710 710 710 709 708 708 707 706 706 706 705 703 702 702 702 702 701 700 701 701 701 702 701 701 699 699 699 699 699 698 698 698 698 698 698 699 700 701 702 703 704 705 706 707 708 709 710 711 712 713 714 715 716 717 719 721 723 724 726 727 729 730 732 733 734 735 736 738 739 741 742 744 746
711 711 710 710 710 709 709 709 709 708 708 708 709 709 709 709 708 707 705 705 705 705 704 703 701 700 700 700 699 699 699 699 699 699 700 701 700 698 697 698 698 698 698 697 697 697 697 697 698 698 700 701 702 703 704 705 706 707 708 709 710 711 712 713 714 715 717 718 720 722 723 725 726 728 729 730 731 732 734 735 736 737 739 741 743 745
708 708 708 707 707 707 707 707 706 706 706 706 706 707 707 707 706 704 702 702 703 704 702 701 699 699 699 698 697 697 697 697 696 697 698 700 699 697 696 697 697 697 697 697 696 696 696 696 697 697 698 699 701 702 703 704 706 706 707 708 709 710 711 712 713 715 716 717 719 721 722 723 725 726 727 729 730 731 732 733 735 736 738 740 741 743
706 706 705 705 705 705 704 704 704 704 704 704 704 705 705 705 704 702 701 701 702 701 699 698 698 698 697 696 696 696 696 695 695 695 697 698 697 696 696 696 696 696 697 697 696 696 696 695 696 696 697 698 700 701 702 703 705 706 706 707 708 709 710 711 712 714 715 716 717 719 720 721 723 724 726 727 728 730 731 732 734 735 737 738 740 741
704 704 703 702 702 702 702 701 701 701 701 701 702 702 702 702 701 700 700 701 701 699 696 696 696 696 696 696 695 694 693 692 693 694 695 696 695 694 695 695 695 695 696 696 696 696 695 694 695 695 696 697 698 700 701 702 703 705 706 706 707 708 709 710 711 712 713 714 716 717 718 720 721 722 724 725 726 728 729 731 732 734 735 737 738 739
702 702 701 701 700 700 700 699 699 699 699 699 699 699 699 699 699 698 698 699 698 696 695 694 694 695 695 695 694 692 690 691 691 692 693 693 693 693 694 694 694 694 695 696 696 695 694 693 693 694 695 696 697 698 700 701 702 703 704 705 706 707 708 709 710 711 712 713 714 715 716 717 719 720 722 723 725 726 727 729 731 732 733 735 736 737
700 700 699 698 698 698 697 697 696 696 696 696 696 696 696 696 696 696 696 696 696 695 694 693 692 692 692 692 691 690 689 690 690 690 691 691 692 692 692 693 693 693 693 694 694 694 693 693 692 693 694 695 696 697 698 700 701 701 702 703 704 706 706 708 709 710 711 712 713 713 715 716 717 718 720 721 723 724 726 727 729 730 731 733 734 735
698 698 697 696 696 696 695 695 695 694 694 694 694 694 694 694 694 694 694 693 693 693 692 691 691 690 690 690 689 689 688 689 689 689 689 690 691 691 691 691 691 691 692 693 693 693 692 692 692 693 693 694 694 696 697 698 700 700 701 702 702 703 705 706 708 709 710 711 712 713 713 714 716 717 718 720 721 723 724 726 727 728 729 730 731 732
697 696 695 695 694 694 693 693 692 692 692 692 691 691 691 691 691 691 691 691 691 690 690 689 688 688 688 688 687 687 687 687 687 687 688 689 689 690 690 690 690 690 691 692 692 692 692 692 692 692 693 693 693 694 696 697 698 699 700 701 701 702 703 705 706 707 708 709 711 711 712 713 714 715 716 718 719 721 722 724 725 726 727 728 729 731
695 694 693 693 692 692 691 691 690 690 690 689 689 689 689 689 689 689 688 688 688 688 687 687 686 686 686 686 685 685 685 685 686 686 686 687 687 688 689 688 689 689 690 690 691 691 691 691 692 692 692 692 693 693 694 695 696 697 699 699 700 701 701 702 704 705 706 707 709 710 711 711 713 714 715 716 717 719 720 722 723 724 725 726 727 729
693 692 691 691 691 690 689 689 688 688 687 687 686 686 686 686 686 686 686 686 686 685 685 685 684 684 684 684 683 683 683 683 684 684 684 685 685 686 687 687 687 688 689 689 689 690 690 690 691 691 692 692 692 692 693 693 695 696 697 698 699 699 700 701 702 703 704 705 706 707 708 710 711 712 713 714 715 717 718 720 721 722 723 725 726 727
691 690 689 689 689 688 687 686 686 686 685 684 684 684 684 684 684 684 684 684 683 683 683 682 682 682 682 681 681 681 681 682 682 682 682 682 683 684 685 685 686 686 687 687 688 688 689 689 690 691 691 691 691 691 691 692 693 694 695 696 697 698 699 700 701 702 702 703 704 705 706 708 709 710 711 712 714 716 717 718 719 721 721 723 724 725
688 687 687 687 686 686 685 684 684 683 683 682 682 682 681 681 681 681 681 681 681 681 681 680 680 680 680 680 679 680 680 681 681 680 680 680 681 682 683 683 684 685 685 686 686 687 688 688 688 689 689 689 690 690 690 691 691 692 693 694 695 696 697 698 699 700 701 702 703 704 705 706 707 708 709 711 712 714 715 716 718 719 720 721 722 724
686 685 685 685 684 684 683 682 681 681 681 681 680 680 680 679 679 679 679 679 679 679 678 678 678 677 677 677 677 678 678 678 678 678 678 678 678 679 681 681 682 683 684 684 685 686 686 686 686 686 687 687 688 689 689 689 690 691 691 693 694 695 695 696 697 698 699 700 701 702 703 704 705 706 707 708 710 711 712 714 715 717 719 720 721 722
682 682 682 681 681 681 681 680 679 679 679 678 678 678 677 677 677 677 677 677 676 676 676 676 676 675 675 675 675 676 676 676 676 676 676 676 676 677 678 679 680 681 682 683 684 684 685 685 685 685 685 686 686 687 688 688 689 690 691 692 693 693 693 694 695 696 697 698 700 701 701 702 703 704 705 706 707 708 709 711 712 714 716 717 719 720
679 678 678 678 678 678 677 677 677 677 676 676 676 676 675 675 675 675 675 675 675 674 674 674 674 673 673 673 673 673 673 674 674 674 674 674 674 675 676 677 678 680 680 681 681 682 683 683 683 684 684 684 685 685 686 686 687 688 689 690 691 691 691 692 693 694 696 696 697 699 700 700 701 702 703 704 704 705 706 708 710 711 713 715 716 717
676 676 675 675 676 676 675 675 675 675 675 674 674 673 673 673 673 673 673 672 672 672 672 672 672 672 671 671 670 671 671 671 672 672 672 672 673 673 674 675 676 678 679 679 680 680 681 681 682 682 682 683 684 684 684 685 686 687 688 688 689 690 691 691 691 692 694 695 696 697 698 699 699 700 701 701 702 703 705 706 708 709 711 712 713 715
674 674 673 674 674 674 673 673 673 673 673 673 672 671 671 671 671 671 671 670 670 670 670 670 670 670 670 669 669 668 669 669 670 670 671 671 671 672 672 673 674 676 676 677 678 678 679 680 680 680 681 681 682 683 683 684 685 685 686 687 688 690 690 690 690 691 692 693 694 695 696 697 697 698 699 700 701 702 703 705 706 707 709 710 711 712
673 672 672 672 672 672 672 672 671 671 671 671 671 670 670 669 669 669 668 668 668 668 668 668 668 668 668 667 667 667 667 667 667 668 669 669 670 670 671 672 672 673 674 675 676 676 677 678 678 679 679 681 681 681 682 682 683 684 685 686 686 687 687 687 688 689 690 691 692 693 694 695 696 697 698 699 700 701 702 703 704 706 707 708 709 711
671 671 671 671 671 671 670 670 670 670 670 669 669 668 668 668 667 667 666 666 666 666 666 666 666 666 666 665 665 666 666 666 666 666 666 667 668 669 670 670 671 672 672 673 673 674 675 676 676 677 678 679 680 680 680 681 682 682 683 684 685 685 686 686 686 687 688 689 690 691 692 694 695 696 697 697 698 699 700 701 702 703 705 706 707 709
670 670 669 669 669 669 668 668 668 668 668 667 666 666 666 666 666 666 665 664 664 664 663 664 664 664 663 663 664 664 665 664 664 664 665 665 666 667 668 669 669 670 671 671 672 672 673 674 675 676 677 678 678 678 679 680 681 681 682 683 683 684 685 685 685 685 686 687 688 690 691 692 694 695 695 696 696 697 698 699 700 701 702 704 706 707
668 668 667 667 667 667 667 667 667 666 666 665 664 664 664 665 665 664 664 663 663 662 662 661 661 661 661 661 662 663 663 662 662 663 663 664 664 665 666 667 668 669 669 670 671 671 672 673 673 674 675 676 676 676 677 678 679 680 680 681 682 683 683 684 684 684 685 686 687 688 690 691 692 693 693 694 695 696 696 697 698 699 701 702 704 705
666 666 666 666 665 665 665 665 665 665 664 663 663 662 662 662 662 662 662 662 661 661 660 660 659 658 658 659 660 661 661 661 661 661 662 662 663 663 664 665 666 667 668 669 669 670 671 671 672 673 673 674 674 675 676 676 677 678 679 680 681 681 681 682 682 682 683 684 685 686 688 689 690 691 692 693 694 694 695 696 696 698 699 701 702 703
664 663 663 663 663 663 662 663 663 663 662 661 661 661 661 660 660 660 660 660 660 660 659 658 657 656 656 657 658 659 659 659 659 659 660 661 661 662 663 664 665 666 667 668 668 669 670 670 671 671 671 672 673 673 674 675 676 676 677 678 679 679 680 680 681 681 682 683 684 685 686 687 688 689 691 691 692 692 693 694 695 696 697 699 700 701
661 661 661 661 661 660 660 660 661 661 660 660 660 659 659 658 658 658 657 658 658 658 657 656 655 654 654 655 656 656 657 657 658 658 658 659 660 661 661 662 664 665 666 667 667 668 669 669 669 669 669 670 671 671 672 673 674 675 676 676 676 677 678 679 679 679 680 681 682 683 684 686 687 688 689 690 691 691 692 693 693 694 695 696 698 700
658 658 658 658 658 658 658 658 658 658 658 658 658 658 657 657 656 656 656 656 655 655 655 654 654 653 653 653 654 655 655 656 656 656 656 657 658 659 660 661 662 663 664 665 666 667 668 668 668 667 667 667 668 669 670 671 672 673 674 674 675 676 676 677 677 678 678 680 681 681 683 684 685 686 687 688 689 690 691 691 692 692 693 695 696 697